Regional Weather Roundup
Issued by NWS

Home | Current Version | Previous Version | Text Only | Print | Product List | Glossary Off
Versions: 1 2 3 4 5 6 7 8 9 10 11 12 13 14 15 16 17 18 19 20 21 22 23 24 25 26

000
ASUS45 KPSR 121910
RWRAZ

ARIZONA HOURLY REGIONAL WEATHER ROUNDUP
NATIONAL WEATHER SERVICE PHOENIX AZ
1200 PM MST TUE DEC 12 2017

NOTE: FAIR INDICATES FEW OR NO CLOUDS BELOW 12,000 FEET WITH NO
SIGNIFICANT WEATHER AND/OR OBSTRUCTIONS TO VISIBILITY.

AZZ001>003-036-122000-
NORTHWEST ARIZONA

CITY           SKY/WX    TMP DP  RH WIND       PRES   REMARKS
BULLHEAD CITY  SUNNY     68  -2   6 N25G33    30.24F
KINGMAN        SUNNY     61   2   9 N12       30.33F
$$

AZZ004>008-015-016-018-122000-
NORTH CENTRAL ARIZONA

CITY           SKY/WX    TMP DP  RH WIND       PRES   REMARKS
GRAND CANYON   SUNNY     55   3  12 NE17      30.46F
WILLIAMS       SUNNY     59   5  11 NW3       30.40F
PRESCOTT       SUNNY     57   1  10 NW5       30.37F
FLAGSTAFF      SUNNY     51   1  13 E9        30.44F
PAYSON         SUNNY     63  -9   5 VRB8      30.36F
PAGE           SUNNY     42  13  30 N3        30.48F
$$

AZZ009>014-017-122000-
NORTHEAST ARIZONA

CITY           SKY/WX    TMP DP  RH WIND       PRES   REMARKS
WINSLOW        SUNNY     42  -2  15 CALM      30.47F
SAINT JOHNS    SUNNY     40  -5  14 NW5       30.43F
WINDOW ROCK    SUNNY     50   0  12 W3        30.45F
SHOW LOW       SUNNY     45  -2  14 NE5       30.45F
$$

AZZ540-542>544-546-548-122000-
GREATER PHOENIX AREA

CITY           SKY/WX    TMP DP  RH WIND       PRES   REMARKS
PHOENIX        MOSUNNY   72   7   8 E10       30.19F
BUCKEYE        SUNNY     64  59  82 E10       30.20F
GLENDALE       PTSUNNY   66   7   9 CALM      30.22F
LUKE AFB       MOSUNNY   68   7   9 CALM      30.19F
DEER VALLEY    SUNNY     73   0   5 S5        30.20F
SCOTTSDALE     SUNNY     74   7   7 NE6       30.22F
CHANDLER       PTSUNNY   70  10  10 VRB6      30.20F
$$

AZZ539-553-122000-
SOUTHWEST MARICOPA COUNTY AND PINAL COUNTY

CITY           SKY/WX    TMP DP  RH WIND       PRES   REMARKS
CASA GRANDE    NOT AVBL
GILA BEND      MOSUNNY   64   9  11 N5        30.19F
$$

AZZ503-504-507>509-122000-
SOUTHEAST ARIZONA

CITY           SKY/WX    TMP DP  RH WIND       PRES   REMARKS
TUCSON         CLOUDY    68   6   9 SE22G29   30.23F
DAVIS-MONTHAN  CLOUDY    69   5   8 NE17      30.21F
RYAN FIELD     SUNNY     70   7   8 E26G36    30.22F
NOGALES        PTSUNNY   65  16  15 E15G23    30.24F
SIERRA VISTA   MOSUNNY   61  14  16 E16G22    30.32F
DOUGLAS        MOSUNNY   62  12  14 E18       30.31F
SAFFORD        MOSUNNY   58   9  14 SE7       30.36F
$$

AZZ532-122000-
SOUTHWEST ARIZONA

CITY           SKY/WX    TMP DP  RH WIND       PRES   REMARKS
YUMA           MOSUNNY   73   6   7 N9        30.18F
$$

CAZ041-043-047-048-061-525>527-560>570-122000-
SOUTHERN CALIFORNIA

CITY           SKY/WX    TMP DP  RH WIND       PRES   REMARKS
DOWNTOWN L.A.  SUNNY     76   4   6 CALM      30.15F
L.A. AIRPORT   MOSUNNY   78   1   5 CALM      30.16F
SAN DIEGO      MOSUNNY   76  12   8 NW6       30.15F
BURBANK        SUNNY     73   5   7 CALM      30.18F
ONTARIO        MOSUNNY   72   3   6 SW5       30.17F
RIVERSIDE      SUNNY     78   3   5 E9        30.17F
PALM SPRINGS   SUNNY     80   0   4 SW3       30.21F
EL CENTRO NAS  SUNNY     72   9   8 NW5       30.21F
IMPERIAL       SUNNY     71  12  10 CALM      30.19F
BLYTHE         SUNNY     63   9  12 E3        30.24F
NEEDLES        SUNNY     70   1   6 N12       30.26F
$$

NVZ020-UTZ003-122000-
SOUTHERN NEVADA-UTAH

CITY           SKY/WX    TMP DP  RH WIND       PRES   REMARKS
LAS VEGAS      MOSUNNY   61  -2   8 CALM      30.34F
SALT LAKE CITY FOG       24  23  96 CALM      30.59F VSB 1/2
$$

NMZ009-TXZ055-122000-
NEW MEXICO-WEST TEXAS

CITY           SKY/WX    TMP DP  RH WIND       PRES   REMARKS
ALBUQUERQUE    SUNNY     47   5  18 CALM      30.46F
EL PASO        SUNNY     57  12  17 SE14      30.44F
$$


........................KEY........................
SKY/WX - SKY CONDITION/WEATHER
TMP    - TEMPERATURE IN FAHRENHEIT
DP     - DEW POINT IN FAHRENHEIT
RH     - RELATIVE HUMIDITY IN PERCENT
WIND   - DIRECTION AND SPEED IN MILES PER HOUR (MPH)
VRB    - VARIABLE WIND DIRECTION
PRES   - MEAN SEA LEVEL PRESSURE IN INCHES OF MERCURY
         F - FALLING PRESSURE   R - RISING PRESSURE
         S - STEADY PRESSURE
VSB    - VISIBILITY IN MILES
HX     - HEAT INDEX IN FAHRENHEIT
WCI    - WIND CHILL INDEX IN FAHRENHEIT
TC     - TEMPERATURE IN CELSIUS WHICH IS ALSO KNOWN AS
         TEMPERATURE IN CENTIGRADE
AFB    - AIR FORCE BASE
         LUKE AFB IS LUKE AIR FORCE BASE
         DAVIS-MONTHAN IS DAVIS-MONTHAN AIR FORCE BASE
NAS    - NAVAL AIR STATION
         EL CENTRO NAS IS EL CENTRO NAVAL AIR STATION
N/A    - NOT AVAILABLE





USA.gov is the U.S. government's official web portal to all federal, state and local government web resources and services.